Regional Weather Roundup
Issued by NWS

Home | Current Version | Previous Version | Graphics & Text | Print | Product List | Glossary On
Versions: 1 2 3 4 5 6 7 8 9 10 11 12 13 14 15 16 17 18 19 20 21 22 23 24 25 26 27 28 29 30 31 32 33 34 35 36 37 38 39 40 41 42 43 44 45 46 47 48 49 50
000
ASUS43 KDTX 151901
RWRMI
MICHIGAN HOURLY REGIONAL WEATHER ROUNDUP
NATIONAL WEATHER SERVICE DETROIT/PONTIAC MI
300 PM EDT TUE APR 15 2014

NOTE: "FAIR" INDICATES FEW OR NO CLOUDS BELOW 12,000 FEET WITH NO
SIGNIFICANT WEATHER AND/OR OBSTRUCTION TO VISIBILITY.

MIZ047>049-052>055-059>063-066>070-074>076-081>083-152000-
SOUTHEAST LOWER MICHIGAN

CITY           SKY/WX    TMP DP  RH WIND       PRES   REMARKS
ADRIAN         CLOUDY    31  17  56 NW15      30.06R WCI  20
ALMA           PTSUNNY   29  21  71 NW15G22   30.05R WCI  18
ANN ARBOR      LGT SNOW  31  20  63 W21G29    30.03R WCI  18
BAD AXE        CLOUDY    28  15  58 NW14G24   30.00R WCI  16
CARO           CLOUDY    32  15  49 NW14      30.01R WCI  22
DETROIT CITY   PTSUNNY   35  12  38 W17G24    30.02R WCI  25
DETROIT        CLOUDY    31  15  52 W15       30.04R WCI  20
FLINT          PTSUNNY   33  13  43 NW17G30   30.02R WCI  22
GROSSE ILE     CLOUDY    32  16  51 NW14      30.02R WCI  22
HILLSDALE      PTSUNNY   31  16  53 W17G24    30.04R WCI  19
HOWELL         LGT SNOW  28  20  70 NW13G24   30.03R WCI  18

CITY           SKY/WX    TMP DP  RH WIND       PRES   REMARKS
JACKSON        CLOUDY    30  16  56 NW14G20   30.04R WCI  19
LAMBERTVILLE   CLOUDY    32  18  55 NW9G20    30.06R WCI  24
LANSING        PTSUNNY   32  16  51 W13G21    30.05R WCI  22
LAPEER         CLOUDY    30  16  56 NW13G22   30.00R WCI  20
MASON          CLOUDY    30  18  59 NW10      30.04R WCI  21
MONROE         CLOUDY    30  21  69 W17       30.03R WCI  18
MT. CLEMENS    FLURRIES  30  20  64 NW17      30.00R WCI  19
PONTIAC        FLURRIES  29  16  58 W21G29    30.00R WCI  16
PORT HOPE        N/A     28  19  69 NW9       29.98R WCI  19
PORT HURON     CLOUDY    30  19  64 W10G20    30.00R WCI  21
TRI CITIES     CLOUDY    33  14  45 NW17      30.03R WCI  22
TROY           CLOUDY    32  15  50 NW15G23   30.02R WCI  22
SAGINAW HB     CLOUDY    32  12  43 NW18G25   30.03R WCI  20
YPSILANTI      PTSUNNY   34  17  50 W20       30.03R WCI  23
$$
MIZ043>046-050>051-056>058-064>065-071>073-077>080-152000-
SOUTHWEST LOWER MICHIGAN

CITY           SKY/WX    TMP DP  RH WIND       PRES   REMARKS
BATTLE CREEK   PTSUNNY   32  12  43 NW20G29   30.07R WCI  20
BENTON HARBOR  SUNNY     30  13  49 N9G20     30.15S WCI  22
BIG RAPIDS     CLOUDY    29   8  42 N13G20    30.05R WCI  18
COLDWATER      PTSUNNY   32  14  47 NW15G28   30.07R WCI  22
FREMONT        MOCLDY    30  11  45 NW16G24   30.09R WCI  19
HOLLAND        SUNNY     32  15  49 NW18G26   30.14R WCI  20
GRAND RAPIDS   PTSUNNY   32  11  41 NW18      30.08R WCI  20
IONIA          CLOUDY    32  17  53 NW13G24   30.05R WCI  22
KALAMAZOO      MOSUNNY   34   9  35 NW24G35   30.09R WCI  21
LUDINGTON      MOSUNNY   29  14  53 NW9G16    30.12R WCI  21
MARSHALL       CLOUDY    32  13  45 NW10G22   30.05R WCI  24
MOUNT PLEASANT PTSUNNY   30  13  49 NW14      30.04R WCI  20
MUSKEGON       MOSUNNY   32  12  43 W15G26    30.13R WCI  22
SOUTH HAVEN    MOSUNNY   32  13  46 NW12G22   30.14S WCI  23
$$
MIZ016>042-152000-
NORTHERN LOWER MICHIGAN

CITY           SKY/WX    TMP DP  RH WIND       PRES   REMARKS
ALPENA         CLOUDY    25   7  46 NW21G31   29.99R WCI  11
BEAVER ISLAND  MOSUNNY   28  13  54 NW10G17   30.06R WCI  18
BELLAIRE       PTSUNNY   27  11  50 NW13G21   30.08R WCI  17
CADILLAC       CLOUDY    25  11  55 NW15      30.02R WCI  13
CHARLEVOIX     SUNNY     27  15  58 NW15G22   30.09S WCI  16
FRANKFORT      MOSUNNY   28  13  53 NW8G17    30.10S WCI  19
GAYLORD        PTSUNNY   23   6  48 NW13G21   29.99R WCI  11
GRAYLING       CLOUDY    26  10  50 NW15G24   30.01R WCI  13
HARBOR SPRINGS CLOUDY    26  13  55 NW12      30.04R WCI  16
HOUGHTON LAKE  PTSUNNY   26   8  46 NW18G31   30.02R WCI  13
MANISTEE       PTSUNNY   28  10  47 N12       30.12R WCI  18
OSCODA         CLOUDY    30  12  47 NW16G23   29.98R WCI  19
PELLSTON       PTSUNNY   25  10  53 NW22G29   30.04R WCI  10
ROGERS CITY    MOSUNNY   24  11  57 NW21G31   30.02R WCI   9
TRAVERSE CITY  PTSUNNY   27  11  51 NW17      30.08R WCI  14
$$
MIZ007>008-015-152000-
EASTERN UPPER MICHIGAN

CITY           SKY/WX    TMP DP  RH WIND       PRES   REMARKS
KINROSS        MOSUNNY   21   9  58 NW22G29   30.00R WCI   5
MACKINAC ISLAN CLOUDY    25  10  51 NW16G23   30.01S WCI  13
NEWBERRY       CLOUDY    21  11  65 N12       30.03R WCI  10
S. S. MARIE    SUNNY     20   6  55 NW21G32   30.01R WCI   4
MUNISING         N/A     26  14  60 NE6       30.06R WCI  19
$$
MIZ004>006-011>014-085-152000-
CENTRAL UPPER MICHIGAN

CITY           SKY/WX    TMP DP  RH WIND       PRES   REMARKS
MANISTIQUE     CLOUDY    26  14  60 N10G18    30.04S WCI  16
ESCANABA       CLOUDY    27  10  50 NW13G18   30.03S WCI  16
MENOMINEE      PTSUNNY   28  19  69 SW13      30.07S WCI  18
SAWYER-GWINN   LGT SNOW  21  16  79 E7        30.01R WCI  13
$$
MIZ001>003-009>011-084-152000-
WESTERN UPPER MICHIGAN

CITY           SKY/WX    TMP DP  RH WIND       PRES   REMARKS
IRON MOUNTAIN  LGT SNOW  26  17  68 NW8       30.01R WCI  18
HOUGHTON       LGT SNOW  22   9  57 NW15      30.04S WCI   9
COPPER HARBOR    N/A     24  12  60 N3        30.08R
IRONWOOD       MOSUNNY   23   5  46 NW12      30.03F WCI  12
$$

ABBREVIATIONS USED IN REMARKS
   TC - TEMPERATURE IN CELSIUS
  WCI - WIND CHILL INDEX
   HX - HEAT INDEX
  VSB - VISIBILITY




USA.gov is the U.S. government's official web portal to all federal, state and local government web resources and services.